This is the latest recevied weather packets stored in our database for station/object KO4APQ. If no packets are shown the sender has not sent any weather packets the latest 10 day(s).
| Time | Temp. | Humidity | Pressure | Rain* | Wind** | Luminosity | Snow |
|---|---|---|---|---|---|---|---|
| 1777591322 | 20.56° C | 55% | 1010.3 hPa | 0 mm | - | 64 W/m² | - |
| 1777591018 | 20.56° C | 55% | 1010.3 hPa | 0 mm | - | 76 W/m² | - |
| 1777590714 | 20.56° C | 53% | 1010.1 hPa | 0 mm | - | 86 W/m² | - |
| 1777590410 | 21.11° C | 53% | 1010 hPa | 0 mm | - | 92 W/m² | - |
| 1777590107 | 21.11° C | 51% | 1010.1 hPa | 0 mm | - | 101 W/m² | - |
| 1777589803 | 21.11° C | 50% | 1010 hPa | 0 mm | - | 121 W/m² | - |
| 1777589498 | 21.11° C | 53% | 1010 hPa | 0 mm | - | 109 W/m² | - |
| 1777589197 | 21.67° C | 49% | 1009.9 hPa | 0 mm | - | 121 W/m² | - |
| 1777588894 | 21.67° C | 50% | 1010.1 hPa | 0 mm | - | 123 W/m² | - |
| 1777588590 | 21.67° C | 48% | 1009.9 hPa | 0 mm | - | 144 W/m² | - |
| 1777588286 | 21.67° C | 48% | 1010 hPa | 0 mm | - | 145 W/m² | - |
| 1777587981 | 22.22° C | 48% | 1009.8 hPa | 0 mm | - | 179 W/m² | - |
| 1777587678 | 22.22° C | 51% | 1010 hPa | 0 mm | - | 160 W/m² | - |
| 1777587377 | 22.78° C | 47% | 1009.9 hPa | 0 mm | - | 158 W/m² | - |
| 1777587073 | 22.78° C | 47% | 1009.9 hPa | 0 mm | - | 206 W/m² | - |
| 1777586769 | 22.78° C | 48% | 1009.8 hPa | 0 mm | - | 212 W/m² | - |
| 1777586465 | 22.78° C | 46% | 1009.7 hPa | 0 mm | - | 216 W/m² | - |
| 1777586160 | 23.33° C | 43% | 1009.6 hPa | 0 mm | - | 226 W/m² | - |
| 1777585858 | 23.33° C | 40% | 1009.7 hPa | 0 mm | - | 243 W/m² | - |
| 1777585558 | 23.89° C | 41% | 1009.9 hPa | 0 mm | - | 242 W/m² | - |
| 1777585254 | 23.89° C | 41% | 1009.8 hPa | 0 mm | - | 309 W/m² | - |
| 1777584949 | 23.89° C | 39% | 1009.6 hPa | 0 mm | - | 408 W/m² | - |
| 1777584647 | 23.89° C | 37% | 1009.6 hPa | 0 mm | - | 399 W/m² | - |
| 1777584343 | 23.89° C | 42% | 1009.6 hPa | 0 mm | - | 341 W/m² | - |
| 1777584039 | 23.89° C | 46% | 1009.6 hPa | 0 mm | - | 382 W/m² | - |
* Rain latest hour (hover to see other rain measurements)
** Current wind speed in m/s (hover to see current wind gust speed)